Time,TemperatureF,DewpointF,PressureIn,WindDirection,WindDirectionDegrees,WindSpeedMPH,WindSpeedGustMPH,Humidity,HourlyPrecipIn,Conditions,Clouds,dailyrainin,SoftwareType,DateUTC
2013-06-15 00:01:00,66.4,66.4,30.04,NE,55,0.0,0.0,100,0.00,,BKN230,0.00,VWS V14.01,2013-06-15 04:01:00,
2013-06-15 00:02:00,66.4,66.4,30.04,NE,49,0.0,0.0,100,0.00,,BKN230,0.00,VWS V14.01,2013-06-15 04:02:00,
2013-06-15 00:04:00,66.4,66.4,30.04,NE,50,0.0,0.0,100,0.00,,BKN230,0.00,VWS V14.01,2013-06-15 04:04:00,
2013-06-15 00:09:00,66.2,66.2,30.04,NE,52,0.0,0.0,100,0.00,,BKN230,0.00,VWS V14.01,2013-06-15 04:09:00,
2013-06-15 00:14:00,66.2,66.2,30.04,NE,51,0.0,0.0,100,0.00,,BKN230,0.00,VWS V14.01,2013-06-15 04:14:00,
2013-06-15 00:19:00,66.0,66.0,30.04,NE,54,0.0,0.0,100,0.00,,BKN230,0.00,VWS V14.01,2013-06-15 04:19:00,
2013-06-15 00:24:00,66.0,66.0,30.04,NE,51,0.0,0.0,100,0.00,,BKN230,0.00,VWS V14.01,2013-06-15 04:24:00,
2013-06-15 00:30:00,65.8,65.8,30.04,NE,51,0.0,0.0,100,0.00,,BKN230,0.00,VWS V14.01,2013-06-15 04:30:00,
2013-06-15 00:35:00,65.7,65.7,30.04,NE,51,0.0,0.0,100,0.00,,BKN230,0.00,VWS V14.01,2013-06-15 04:35:00,
2013-06-15 00:40:00,65.5,65.5,30.04,NE,51,0.0,0.0,100,0.00,,BKN230,0.00,VWS V14.01,2013-06-15 04:40:00,
2013-06-15 00:45:00,65.3,65.3,30.04,NE,51,0.0,0.0,100,0.00,,BKN230,0.00,VWS V14.01,2013-06-15 04:45:00,
2013-06-15 00:50:00,65.1,65.1,30.04,NE,51,0.0,0.0,100,0.00,,BKN230,0.00,VWS V14.01,2013-06-15 04:50:00,
2013-06-15 00:55:00,64.9,64.9,30.04,NE,51,0.0,0.0,100,0.00,,BKN230,0.00,VWS V14.01,2013-06-15 04:55:00,
2013-06-15 01:01:00,64.8,64.8,30.04,NE,51,0.0,0.0,100,0.00,,BKN230,0.00,VWS V14.01,2013-06-15 05:01:00,
2013-06-15 01:06:00,64.6,64.6,30.04,NE,51,0.0,0.0,100,0.00,,BKN230,0.00,VWS V14.01,2013-06-15 05:06:00,
2013-06-15 01:11:00,64.4,64.4,30.04,NE,51,0.0,0.0,100,0.00,,BKN230,0.00,VWS V14.01,2013-06-15 05:11:00,
2013-06-15 01:16:00,64.2,64.2,30.04,NE,51,0.0,0.0,100,0.00,,BKN230,0.00,VWS V14.01,2013-06-15 05:16:00,
2013-06-15 01:21:00,63.9,63.9,30.04,NE,51,0.0,0.0,100,0.00,,BKN230,0.00,VWS V14.01,2013-06-15 05:21:00,
2013-06-15 01:27:00,63.9,63.9,30.04,NE,51,0.0,0.0,100,0.00,,BKN230,0.00,VWS V14.01,2013-06-15 05:27:00,
2013-06-15 01:32:00,63.7,63.7,30.04,NE,51,0.0,0.0,100,0.00,,BKN230,0.00,VWS V14.01,2013-06-15 05:32:00,
2013-06-15 01:37:00,63.7,63.7,30.04,NE,51,0.0,0.0,100,0.00,,SCT220,0.00,VWS V14.01,2013-06-15 05:37:00,
2013-06-15 01:42:00,63.7,63.7,30.04,NE,51,0.0,0.0,100,0.00,,SCT220,0.00,VWS V14.01,2013-06-15 05:42:00,
2013-06-15 01:47:00,63.7,63.7,30.04,NE,51,0.0,0.0,100,0.00,,SCT220,0.00,VWS V14.01,2013-06-15 05:47:00,
2013-06-15 01:52:00,63.5,63.5,30.04,NE,51,0.0,0.0,100,0.00,,SCT220,0.00,VWS V14.01,2013-06-15 05:52:00,
2013-06-15 01:57:00,63.3,63.3,30.04,NE,51,0.0,0.0,100,0.00,,SCT220,0.00,VWS V14.01,2013-06-15 05:57:00,
2013-06-15 02:03:00,63.3,63.3,30.04,NE,51,0.0,0.0,100,0.00,,SCT220,0.00,VWS V14.01,2013-06-15 06:03:00,
2013-06-15 02:08:00,63.1,63.1,30.04,NE,51,0.0,0.0,100,0.00,,SCT220,0.00,VWS V14.01,2013-06-15 06:08:00,
2013-06-15 02:13:00,63.1,63.1,30.04,NE,51,0.0,0.0,100,0.00,,SCT220,0.00,VWS V14.01,2013-06-15 06:13:00,
2013-06-15 02:19:00,63.0,63.0,30.04,NE,51,0.0,0.0,100,0.00,,SCT220,0.00,VWS V14.01,2013-06-15 06:19:00,
2013-06-15 02:24:00,62.8,62.8,30.04,NE,51,0.0,0.0,100,0.00,,SCT220,0.00,VWS V14.01,2013-06-15 06:24:00,
2013-06-15 02:30:00,62.8,62.8,30.04,NE,51,0.0,0.0,100,0.00,,SCT220,0.00,VWS V14.01,2013-06-15 06:30:00,
2013-06-15 02:35:00,62.8,62.8,30.04,NE,51,0.0,0.0,100,0.00,,SCT220,0.00,VWS V14.01,2013-06-15 06:35:00,
2013-06-15 02:40:00,62.8,62.8,30.04,NE,51,0.0,0.0,100,0.00,,SCT220,0.00,VWS V14.01,2013-06-15 06:40:00,
2013-06-15 02:46:00,62.8,62.8,30.04,NE,51,0.0,0.0,100,0.00,,SCT220,0.00,VWS V14.01,2013-06-15 06:46:00,
2013-06-15 02:51:00,62.6,62.6,30.04,NE,51,0.0,0.0,100,0.00,,SCT220,0.00,VWS V14.01,2013-06-15 06:51:00,
2013-06-15 02:56:00,62.6,62.6,30.04,NE,51,0.0,0.0,100,0.00,,SCT220,0.00,VWS V14.01,2013-06-15 06:56:00,
2013-06-15 03:01:00,62.4,62.4,30.04,NE,51,0.0,0.0,100,0.00,,SCT220,0.00,VWS V14.01,2013-06-15 07:01:00,
2013-06-15 03:07:00,62.1,62.1,30.07,NE,51,0.0,0.0,100,0.00,,SCT220,0.00,VWS V14.01,2013-06-15 07:07:00,
2013-06-15 03:12:00,61.9,61.9,30.07,NE,51,0.0,0.0,100,0.00,,SCT230,0.00,VWS V14.01,2013-06-15 07:12:00,
2013-06-15 03:17:00,61.9,61.9,30.07,ENE,77,0.0,0.0,100,0.00,,SCT230,0.00,VWS V14.01,2013-06-15 07:17:00,
2013-06-15 03:23:00,62.1,62.1,30.07,ENE,77,0.0,0.0,100,0.00,,SCT230,0.00,VWS V14.01,2013-06-15 07:23:00,
2013-06-15 03:28:00,62.1,62.1,30.07,ENE,77,0.0,0.0,100,0.00,,SCT230,0.00,VWS V14.01,2013-06-15 07:28:00,
2013-06-15 03:33:00,61.9,61.9,30.07,ENE,77,0.0,0.0,100,0.00,,SCT230,0.00,VWS V14.01,2013-06-15 07:33:00,
2013-06-15 03:38:00,61.9,61.9,30.07,ENE,77,0.0,0.0,100,0.00,,SCT230,0.00,VWS V14.01,2013-06-15 07:38:00,
2013-06-15 03:43:00,61.9,61.9,30.07,ENE,77,0.0,0.0,100,0.00,,CLR,0.00,VWS V14.01,2013-06-15 07:43:00,
2013-06-15 03:48:00,61.7,61.7,30.07,ENE,77,0.0,0.0,100,0.00,,CLR,0.00,VWS V14.01,2013-06-15 07:48:00,
2013-06-15 03:54:00,61.5,61.5,30.07,ENE,77,0.0,0.0,100,0.00,,CLR,0.00,VWS V14.01,2013-06-15 07:54:00,
2013-06-15 03:59:00,61.3,61.3,30.07,ENE,78,0.0,0.0,100,0.00,,CLR,0.00,VWS V14.01,2013-06-15 07:59:00,
2013-06-15 04:04:00,61.2,61.2,30.07,ENE,77,0.0,0.0,100,0.00,,CLR,0.00,VWS V14.01,2013-06-15 08:04:00,
2013-06-15 04:09:00,61.0,61.0,30.04,ENE,77,0.0,0.0,100,0.00,,CLR,0.00,VWS V14.01,2013-06-15 08:09:00,
2013-06-15 04:14:00,61.0,61.0,30.04,ENE,77,0.0,0.0,100,0.00,,CLR,0.00,VWS V14.01,2013-06-15 08:14:00,
2013-06-15 04:20:00,61.0,61.0,30.04,ENE,77,0.0,0.0,100,0.00,,CLR,0.00,VWS V14.01,2013-06-15 08:20:00,
2013-06-15 04:25:00,61.3,61.3,30.04,ENE,77,0.0,0.0,100,0.00,,CLR,0.00,VWS V14.01,2013-06-15 08:25:00,
2013-06-15 04:30:00,61.2,61.2,30.04,ENE,77,0.0,0.0,100,0.00,,CLR,0.00,VWS V14.01,2013-06-15 08:30:00,
2013-06-15 04:35:00,61.0,61.0,30.04,ENE,77,0.0,0.0,100,0.00,,CLR,0.00,VWS V14.01,2013-06-15 08:35:00,
2013-06-15 04:40:00,60.8,60.8,30.04,ENE,77,0.0,0.0,100,0.00,,SCT230,0.00,VWS V14.01,2013-06-15 08:40:00,
2013-06-15 04:45:00,60.8,60.8,30.04,ENE,77,0.0,0.0,100,0.00,,SCT230,0.00,VWS V14.01,2013-06-15 08:45:00,
2013-06-15 04:51:00,60.6,60.6,30.04,ENE,77,0.0,0.0,100,0.00,,SCT230,0.00,VWS V14.01,2013-06-15 08:51:00,
2013-06-15 04:56:00,60.6,60.6,30.04,ENE,77,0.0,0.0,100,0.00,,SCT230,0.00,VWS V14.01,2013-06-15 08:56:00,
2013-06-15 05:01:00,60.6,60.6,30.04,ENE,77,0.0,0.0,100,0.00,,SCT230,0.00,VWS V14.01,2013-06-15 09:01:00,
2013-06-15 05:06:00,60.6,60.6,30.04,ENE,77,0.0,0.0,100,0.00,,SCT230,0.00,VWS V14.01,2013-06-15 09:06:00,
2013-06-15 05:11:00,60.6,60.6,30.07,ENE,77,0.0,0.0,100,0.00,,SCT230,0.00,VWS V14.01,2013-06-15 09:11:00,
2013-06-15 05:16:00,60.4,60.4,30.07,ENE,77,0.0,0.0,100,0.00,,SCT230,0.00,VWS V14.01,2013-06-15 09:16:00,
2013-06-15 05:21:00,60.3,60.3,30.07,ENE,77,0.0,0.0,100,0.00,,SCT230,0.00,VWS V14.01,2013-06-15 09:21:00,
2013-06-15 05:27:00,60.1,60.1,30.04,ENE,77,0.0,0.0,100,0.00,,SCT230,0.00,VWS V14.01,2013-06-15 09:27:00,
2013-06-15 05:32:00,60.1,60.1,30.04,ENE,77,0.0,0.0,100,0.00,,SCT230,0.00,VWS V14.01,2013-06-15 09:32:00,
2013-06-15 05:37:00,59.9,59.9,30.04,ENE,77,0.0,0.0,100,0.00,,SCT230,0.00,VWS V14.01,2013-06-15 09:37:00,
2013-06-15 05:42:00,59.9,59.9,30.04,ENE,77,0.0,0.0,100,0.00,,SCT230,0.00,VWS V14.01,2013-06-15 09:42:00,
2013-06-15 05:47:00,59.9,59.9,30.04,ENE,77,0.0,0.0,100,0.00,,SCT230,0.00,VWS V14.01,2013-06-15 09:47:00,
2013-06-15 05:53:00,59.9,59.9,30.04,ENE,77,0.0,0.0,100,0.00,,SCT230,0.00,VWS V14.01,2013-06-15 09:53:00,
2013-06-15 05:58:00,60.1,60.1,30.07,ENE,77,0.0,0.0,100,0.00,,SCT230,0.00,VWS V14.01,2013-06-15 09:58:00,
2013-06-15 06:03:00,60.1,60.1,30.07,ENE,77,0.0,0.0,100,0.00,,SCT230,0.00,VWS V14.01,2013-06-15 10:03:00,
2013-06-15 06:08:00,59.9,59.9,30.07,ENE,77,0.0,0.0,100,0.00,,SCT230,0.00,VWS V14.01,2013-06-15 10:08:00,
2013-06-15 06:13:00,59.7,59.7,30.07,ENE,77,0.0,0.0,100,0.00,,SCT230,0.00,VWS V14.01,2013-06-15 10:13:00,
2013-06-15 06:18:00,59.7,59.7,30.07,ENE,77,0.0,0.0,100,0.00,,SCT230,0.00,VWS V14.01,2013-06-15 10:18:00,
2013-06-15 06:24:00,59.9,59.9,30.07,ENE,77,0.0,0.0,100,0.00,,SCT230,0.00,VWS V14.01,2013-06-15 10:24:00,
2013-06-15 06:29:00,60.1,60.1,30.07,ENE,78,0.0,0.0,100,0.00,,SCT230,0.00,VWS V14.01,2013-06-15 10:29:00,
2013-06-15 06:34:00,60.1,60.1,30.07,ENE,78,0.0,0.0,100,0.00,,SCT230,0.00,VWS V14.01,2013-06-15 10:34:00,
2013-06-15 06:39:00,60.1,60.1,30.07,ENE,78,0.0,0.0,100,0.00,,BKN230,0.00,VWS V14.01,2013-06-15 10:39:00,
2013-06-15 06:44:00,60.1,60.1,30.07,ENE,78,0.0,0.0,100,0.00,,BKN230,0.00,VWS V14.01,2013-06-15 10:44:00,
2013-06-15 06:50:00,60.1,60.1,30.07,ENE,77,0.0,0.0,100,0.00,,BKN230,0.00,VWS V14.01,2013-06-15 10:50:00,
2013-06-15 06:55:00,60.1,60.1,30.07,ENE,78,0.0,0.0,100,0.00,,BKN230,0.00,VWS V14.01,2013-06-15 10:55:00,
2013-06-15 07:00:00,60.3,60.3,30.07,ENE,77,0.0,0.0,100,0.00,,BKN230,0.00,VWS V14.01,2013-06-15 11:00:00,
2013-06-15 07:05:00,60.4,60.4,30.07,ENE,78,0.0,0.0,100,0.00,,BKN230,0.00,VWS V14.01,2013-06-15 11:05:00,
2013-06-15 07:10:00,60.6,60.6,30.10,ENE,78,0.0,0.0,100,0.00,,BKN230,0.00,VWS V14.01,2013-06-15 11:10:00,
2013-06-15 07:15:00,61.0,61.0,30.10,ENE,78,0.0,0.0,100,0.00,,BKN230,0.00,VWS V14.01,2013-06-15 11:15:00,
2013-06-15 07:21:00,61.3,61.3,30.10,ENE,78,0.0,0.0,100,0.00,,BKN230,0.00,VWS V14.01,2013-06-15 11:21:00,
2013-06-15 07:26:00,61.7,61.7,30.10,ENE,78,0.0,0.0,100,0.00,,BKN230,0.00,VWS V14.01,2013-06-15 11:26:00,
2013-06-15 07:31:00,62.1,62.1,30.10,ENE,77,0.0,0.0,100,0.00,,BKN230,0.00,VWS V14.01,2013-06-15 11:31:00,
2013-06-15 07:36:00,62.2,62.2,30.10,ENE,78,0.0,0.0,100,0.00,,OVC240,0.00,VWS V14.01,2013-06-15 11:36:00,
2013-06-15 07:41:00,62.4,62.4,30.10,ENE,78,0.0,0.0,100,0.00,,OVC240,0.00,VWS V14.01,2013-06-15 11:41:00,
2013-06-15 07:47:00,62.6,62.6,30.10,ENE,78,0.0,0.0,100,0.00,,OVC240,0.00,VWS V14.01,2013-06-15 11:47:00,
2013-06-15 07:52:00,63.0,63.0,30.10,ENE,78,0.0,0.0,100,0.00,,OVC240,0.00,VWS V14.01,2013-06-15 11:52:00,
2013-06-15 07:57:00,63.1,63.1,30.10,ENE,77,0.0,0.0,100,0.00,,OVC240,0.00,VWS V14.01,2013-06-15 11:57:00,
2013-06-15 08:02:00,63.7,63.7,30.10,ENE,77,0.0,0.0,100,0.00,,OVC240,0.00,VWS V14.01,2013-06-15 12:02:00,
2013-06-15 08:07:00,64.2,64.2,30.10,ENE,78,0.0,0.0,100,0.00,,OVC240,0.00,VWS V14.01,2013-06-15 12:07:00,
2013-06-15 08:12:00,64.6,64.6,30.10,ENE,78,0.0,0.0,100,0.00,,OVC240,0.00,VWS V14.01,2013-06-15 12:12:00,
2013-06-15 08:17:00,65.1,65.1,30.10,ENE,78,0.0,0.0,100,0.00,,OVC240,0.00,VWS V14.01,2013-06-15 12:17:00,
2013-06-15 08:22:00,65.7,65.7,30.10,ENE,78,0.0,0.0,100,0.00,,OVC240,0.00,VWS V14.01,2013-06-15 12:22:00,
2013-06-15 08:27:00,66.2,66.2,30.10,ENE,78,0.0,0.0,100,0.00,,OVC240,0.00,VWS V14.01,2013-06-15 12:27:00,
2013-06-15 08:32:00,67.3,67.3,30.10,ENE,78,0.0,0.0,100,0.00,,OVC240,0.00,VWS V14.01,2013-06-15 12:32:00,
2013-06-15 08:38:00,68.0,68.0,30.10,ENE,78,0.0,0.0,100,0.00,,OVC240,0.00,VWS V14.01,2013-06-15 12:38:00,
2013-06-15 08:43:00,69.1,69.1,30.10,ENE,78,0.0,0.0,100,0.00,,OVC240,0.00,VWS V14.01,2013-06-15 12:43:00,
2013-06-15 08:48:00,70.2,70.2,30.10,ENE,78,0.0,0.0,100,0.00,,OVC240,0.00,VWS V14.01,2013-06-15 12:48:00,
2013-06-15 08:53:00,71.4,71.4,30.10,ENE,78,0.0,0.0,100,0.00,,OVC240,0.00,VWS V14.01,2013-06-15 12:53:00,
2013-06-15 08:58:00,72.3,70.3,30.10,ENE,78,0.0,0.0,94,0.00,,OVC240,0.00,VWS V14.01,2013-06-15 12:58:00,
2013-06-15 09:04:00,73.0,71.6,30.10,ENE,78,0.0,0.0,95,0.00,,OVC240,0.00,VWS V14.01,2013-06-15 13:04:00,
2013-06-15 09:09:00,73.6,67.6,30.10,ENE,78,0.0,0.0,82,0.00,,OVC240,0.00,VWS V14.01,2013-06-15 13:09:00,
2013-06-15 09:14:00,74.1,68.7,30.10,ENE,78,0.0,0.0,83,0.00,,OVC240,0.00,VWS V14.01,2013-06-15 13:14:00,
2013-06-15 09:19:00,74.3,65.1,30.10,ENE,78,0.0,0.0,73,0.00,,OVC240,0.00,VWS V14.01,2013-06-15 13:19:00,
2013-06-15 09:24:00,74.3,67.1,30.10,ENE,78,0.0,0.0,78,0.00,,OVC240,0.00,VWS V14.01,2013-06-15 13:24:00,
2013-06-15 09:29:00,74.5,67.2,30.10,ENE,78,0.0,0.0,78,0.00,,OVC240,0.00,VWS V14.01,2013-06-15 13:29:00,
2013-06-15 09:35:00,74.8,68.2,30.10,ENE,78,0.0,0.0,80,0.00,,OVC240,0.00,VWS V14.01,2013-06-15 13:35:00,
2013-06-15 09:40:00,75.6,67.7,30.10,ENE,78,0.0,0.0,76,0.00,,OVC230,0.00,VWS V14.01,2013-06-15 13:40:00,
2013-06-15 09:45:00,76.1,68.2,30.10,ENE,78,0.0,0.0,76,0.00,,OVC230,0.00,VWS V14.01,2013-06-15 13:45:00,
2013-06-15 09:50:00,76.8,69.5,30.10,South,186,0.0,0.0,78,0.00,,OVC230,0.00,VWS V14.01,2013-06-15 13:50:00,
2013-06-15 09:55:00,77.7,69.1,30.10,South,179,3.7,6.6,75,0.00,,OVC230,0.00,VWS V14.01,2013-06-15 13:55:00,
2013-06-15 10:00:00,78.3,69.6,30.10,South,177,9.6,12.2,75,0.00,,OVC230,0.00,VWS V14.01,2013-06-15 14:00:00,
2013-06-15 10:05:00,78.8,70.1,30.10,South,178,0.0,0.0,75,0.00,,OVC230,0.00,VWS V14.01,2013-06-15 14:05:00,
2013-06-15 10:11:00,79.0,68.2,30.10,South,178,0.0,0.0,70,0.00,,OVC230,0.00,VWS V14.01,2013-06-15 14:11:00,
2013-06-15 10:16:00,79.0,67.5,30.10,South,178,0.0,0.0,68,0.00,,OVC230,0.00,VWS V14.01,2013-06-15 14:16:00,
2013-06-15 10:21:00,79.0,67.5,30.10,SW,222,0.0,0.0,68,0.00,,OVC230,0.00,VWS V14.01,2013-06-15 14:21:00,
2013-06-15 10:26:00,79.0,65.3,30.10,SW,222,0.0,0.0,63,0.00,,OVC230,0.00,VWS V14.01,2013-06-15 14:26:00,
2013-06-15 10:31:00,79.0,66.8,30.10,South,180,8.9,11.3,66,0.00,,OVC230,0.00,VWS V14.01,2013-06-15 14:31:00,
2013-06-15 10:36:00,79.0,67.5,30.10,South,180,8.9,11.3,68,0.00,,OVC230,0.00,VWS V14.01,2013-06-15 14:36:00,
2013-06-15 10:41:00,79.0,64.5,30.10,SW,221,0.0,0.0,61,0.00,,OVC230,0.00,VWS V14.01,2013-06-15 14:41:00,
2013-06-15 10:46:00,79.2,66.2,30.10,SW,221,0.0,0.0,65,0.00,,OVC230,0.00,VWS V14.01,2013-06-15 14:46:00,
2013-06-15 10:51:00,79.2,66.2,30.10,South,178,3.7,4.7,65,0.00,,OVC230,0.00,VWS V14.01,2013-06-15 14:51:00,
2013-06-15 10:56:00,79.3,67.1,30.07,SSW,211,6.6,11.3,66,0.00,,OVC230,0.00,VWS V14.01,2013-06-15 14:56:00,
2013-06-15 11:01:00,79.7,68.2,30.07,SSW,194,0.0,0.0,68,0.00,,OVC230,0.00,VWS V14.01,2013-06-15 15:01:00,
2013-06-15 11:07:00,80.1,63.9,30.07,SSW,194,0.0,0.0,58,0.00,,OVC230,0.00,VWS V14.01,2013-06-15 15:07:00,
2013-06-15 11:12:00,80.4,64.2,30.07,SSW,194,0.0,0.0,58,0.00,,OVC230,0.00,VWS V14.01,2013-06-15 15:12:00,
2013-06-15 11:17:00,80.8,63.7,30.07,SSW,194,0.0,0.0,56,0.00,,OVC230,0.00,VWS V14.01,2013-06-15 15:17:00,
2013-06-15 11:22:00,80.6,63.5,30.07,SSW,194,0.0,0.0,56,0.00,,OVC230,0.00,VWS V14.01,2013-06-15 15:22:00,
2013-06-15 11:28:00,80.4,63.3,30.04,SSW,194,0.0,0.0,56,0.00,,OVC230,0.00,VWS V14.01,2013-06-15 15:28:00,
2013-06-15 11:33:00,80.8,63.7,30.04,SSW,194,0.0,0.0,56,0.00,,OVC230,0.00,VWS V14.01,2013-06-15 15:33:00,
2013-06-15 11:38:00,80.8,63.7,30.04,SSW,194,0.0,0.0,56,0.00,,BKN230,0.00,VWS V14.01,2013-06-15 15:38:00,
2013-06-15 11:43:00,80.6,62.6,30.04,SSW,194,0.0,0.0,54,0.00,,BKN230,0.00,VWS V14.01,2013-06-15 15:43:00,
2013-06-15 11:48:00,80.8,62.8,30.04,SSW,194,0.0,0.0,54,0.00,,BKN230,0.00,VWS V14.01,2013-06-15 15:48:00,
2013-06-15 11:54:00,81.0,62.1,30.04,SSW,194,0.0,0.0,53,0.00,,BKN230,0.00,VWS V14.01,2013-06-15 15:54:00,
2013-06-15 11:59:00,81.1,61.3,30.04,SSW,194,0.0,0.0,51,0.00,,BKN230,0.00,VWS V14.01,2013-06-15 15:59:00,
2013-06-15 12:04:00,81.3,62.4,30.04,SSW,194,0.0,0.0,53,0.00,,BKN230,0.00,VWS V14.01,2013-06-15 16:04:00,
2013-06-15 12:09:00,81.5,63.5,30.01,SSW,193,17.3,22.1,54,0.00,,BKN230,0.00,VWS V14.01,2013-06-15 16:09:00,
2013-06-15 12:14:00,81.7,62.7,30.01,SSW,193,17.3,22.1,53,0.00,,BKN230,0.00,VWS V14.01,2013-06-15 16:14:00,
2013-06-15 12:19:00,81.3,62.4,30.01,SSW,193,17.3,22.1,53,0.00,,BKN230,0.00,VWS V14.01,2013-06-15 16:19:00,
2013-06-15 12:25:00,80.4,62.5,30.01,SE,145,3.7,12.2,54,0.00,,BKN230,0.00,VWS V14.01,2013-06-15 16:25:00,
2013-06-15 12:30:00,80.1,62.1,30.01,SW,215,4.4,17.4,54,0.00,,BKN230,0.00,VWS V14.01,2013-06-15 16:30:00,
2013-06-15 12:35:00,80.2,63.2,30.01,SSW,199,8.9,11.3,56,0.00,,BKN230,0.00,VWS V14.01,2013-06-15 16:35:00,
2013-06-15 12:40:00,80.4,62.5,30.01,SSW,199,8.9,11.3,54,0.00,,BKN230,0.00,VWS V14.01,2013-06-15 16:40:00,
2013-06-15 12:45:00,80.6,61.7,30.01,South,187,10.3,13.2,53,0.00,,BKN230,0.00,VWS V14.01,2013-06-15 16:45:00,
2013-06-15 12:50:00,81.0,62.1,30.01,South,187,10.3,13.2,53,0.00,,BKN230,0.00,VWS V14.01,2013-06-15 16:50:00,
2013-06-15 12:56:00,81.9,64.7,30.04,SSE,161,9.6,12.2,56,0.00,,BKN230,0.00,VWS V14.01,2013-06-15 16:56:00,
2013-06-15 13:01:00,82.4,65.2,30.04,SSE,161,9.6,12.2,56,0.00,,BKN230,0.00,VWS V14.01,2013-06-15 17:01:00,
2013-06-15 13:06:00,82.4,63.4,30.04,SSE,161,9.6,12.2,53,0.00,,BKN230,0.00,VWS V14.01,2013-06-15 17:06:00,
2013-06-15 13:11:00,82.2,63.2,30.04,SSE,167,6.6,8.5,53,0.00,,BKN230,0.00,VWS V14.01,2013-06-15 17:11:00,
2013-06-15 13:16:00,82.4,62.5,30.04,SSE,167,6.6,8.5,51,0.00,,BKN230,0.00,VWS V14.01,2013-06-15 17:16:00,
2013-06-15 13:21:00,82.4,63.4,30.04,SSE,167,6.6,8.5,53,0.00,,BKN230,0.00,VWS V14.01,2013-06-15 17:21:00,
2013-06-15 13:26:00,82.6,64.5,30.04,SSE,167,6.6,8.5,54,0.00,,BKN230,0.00,VWS V14.01,2013-06-15 17:26:00,
2013-06-15 13:31:00,82.8,64.7,30.04,SSE,167,6.6,8.5,54,0.00,,BKN230,0.00,VWS V14.01,2013-06-15 17:31:00,
2013-06-15 13:36:00,83.3,66.0,30.04,SSE,149,6.6,8.5,56,0.00,,BKN230,0.00,VWS V14.01,2013-06-15 17:36:00,
2013-06-15 13:42:00,83.8,62.8,30.04,SSE,149,6.6,8.5,49,0.00,,BKN230,0.00,VWS V14.01,2013-06-15 17:42:00,
2013-06-15 13:47:00,84.0,64.0,30.04,SSE,149,6.6,8.5,51,0.00,,BKN230,0.00,VWS V14.01,2013-06-15 17:47:00,
2013-06-15 13:52:00,83.8,64.7,30.04,South,174,10.3,13.2,53,0.00,,BKN230,0.00,VWS V14.01,2013-06-15 17:52:00,
2013-06-15 13:57:00,84.0,66.7,30.04,South,179,12.5,16.0,56,0.00,,BKN230,0.00,VWS V14.01,2013-06-15 17:57:00,
2013-06-15 14:02:00,84.7,64.6,30.04,South,179,12.5,16.0,51,0.00,,BKN230,0.00,VWS V14.01,2013-06-15 18:02:00,
2013-06-15 14:07:00,85.1,64.0,30.04,South,179,12.5,16.0,49,0.00,,BKN230,0.00,VWS V14.01,2013-06-15 18:07:00,
2013-06-15 14:12:00,84.7,64.6,30.01,South,179,12.5,16.0,51,0.00,,BKN230,0.00,VWS V14.01,2013-06-15 18:12:00,
2013-06-15 14:18:00,84.6,63.5,30.01,SSW,194,8.9,11.3,49,0.00,,BKN230,0.00,VWS V14.01,2013-06-15 18:18:00,
2013-06-15 14:23:00,84.0,64.0,30.01,SSW,194,8.9,11.3,51,0.00,,BKN230,0.00,VWS V14.01,2013-06-15 18:23:00,
2013-06-15 14:28:00,84.7,63.7,30.04,WNW,286,5.9,7.5,49,0.00,,BKN230,0.00,VWS V14.01,2013-06-15 18:28:00,
2013-06-15 14:33:00,85.3,64.2,30.04,WSW,239,5.2,6.6,49,0.00,,BKN230,0.00,VWS V14.01,2013-06-15 18:33:00,
2013-06-15 14:38:00,85.5,64.3,30.04,WSW,245,5.2,6.6,49,0.00,,BKN230,0.00,VWS V14.01,2013-06-15 18:38:00,
2013-06-15 14:44:00,85.8,64.6,30.04,WSW,245,5.2,6.6,49,0.00,,BKN230,0.00,VWS V14.01,2013-06-15 18:44:00,
2013-06-15 14:49:00,85.8,64.6,30.04,NW,312,5.9,7.5,49,0.00,,BKN230,0.00,VWS V14.01,2013-06-15 18:49:00,
2013-06-15 14:54:00,85.5,64.3,30.04,SW,231,13.7,17.4,49,0.00,,BKN230,0.00,VWS V14.01,2013-06-15 18:54:00,
2013-06-15 14:59:00,85.3,64.2,30.04,SSE,165,8.9,11.3,49,0.00,,BKN230,0.00,VWS V14.01,2013-06-15 18:59:00,
2013-06-15 15:04:00,84.9,63.8,30.04,South,182,8.9,11.3,49,0.00,,BKN230,0.00,VWS V14.01,2013-06-15 19:04:00,
2013-06-15 15:10:00,85.1,64.0,30.04,WSW,243,6.6,8.5,49,0.00,,BKN230,0.00,VWS V14.01,2013-06-15 19:10:00,
2013-06-15 15:15:00,85.3,64.2,30.04,SSW,200,8.9,12.2,49,0.00,,BKN230,0.00,VWS V14.01,2013-06-15 19:15:00,
2013-06-15 15:20:00,85.1,64.0,30.04,SSW,200,8.9,11.3,49,0.00,,BKN230,0.00,VWS V14.01,2013-06-15 19:20:00,
2013-06-15 15:25:00,85.1,63.0,30.01,South,177,4.4,5.6,48,0.00,,BKN230,0.00,VWS V14.01,2013-06-15 19:25:00,
2013-06-15 15:30:00,85.3,64.2,30.01,NW,304,5.9,7.5,49,0.00,,BKN230,0.00,VWS V14.01,2013-06-15 19:30:00,
2013-06-15 15:35:00,85.3,64.2,30.01,South,183,6.6,8.5,49,0.00,,BKN230,0.00,VWS V14.01,2013-06-15 19:35:00,
2013-06-15 15:40:00,85.1,63.0,30.01,SSE,158,8.9,11.3,48,0.00,,BKN230,0.00,VWS V14.01,2013-06-15 19:40:00,
2013-06-15 15:45:00,85.1,63.0,30.01,SSE,158,8.9,11.3,48,0.00,,BKN230,0.00,VWS V14.01,2013-06-15 19:45:00,
2013-06-15 15:51:00,85.1,59.8,30.01,SW,226,5.9,7.5,42,0.00,,BKN230,0.00,VWS V14.01,2013-06-15 19:51:00,
2013-06-15 15:56:00,84.9,61.8,30.01,SSW,207,4.4,5.6,46,0.00,,BKN230,0.00,VWS V14.01,2013-06-15 19:56:00,
2013-06-15 16:01:00,85.1,59.8,30.01,SSW,207,4.4,5.6,42,0.00,,BKN230,0.00,VWS V14.01,2013-06-15 20:01:00,
2013-06-15 16:06:00,84.7,61.6,30.01,SSW,207,4.4,5.6,46,0.00,,BKN230,0.00,VWS V14.01,2013-06-15 20:06:00,
2013-06-15 16:12:00,84.4,63.3,30.01,SSW,207,4.4,5.6,49,0.00,,BKN230,0.00,VWS V14.01,2013-06-15 20:12:00,
2013-06-15 16:17:00,84.6,62.5,30.01,North,0,3.7,4.7,48,0.00,,BKN230,0.00,VWS V14.01,2013-06-15 20:17:00,
2013-06-15 16:22:00,85.1,64.0,30.01,SW,217,4.4,5.6,49,0.00,,BKN230,0.00,VWS V14.01,2013-06-15 20:22:00,
2013-06-15 16:27:00,85.8,64.6,30.01,SW,217,4.4,5.6,49,0.00,,BKN230,0.00,VWS V14.01,2013-06-15 20:27:00,
2013-06-15 16:32:00,85.8,64.6,30.01,SW,225,4.4,5.6,49,0.00,,BKN230,0.00,VWS V14.01,2013-06-15 20:32:00,
2013-06-15 16:37:00,86.2,64.0,30.01,West,263,3.7,4.7,48,0.00,,OVC230,0.00,VWS V14.01,2013-06-15 20:37:00,
2013-06-15 16:43:00,86.4,64.1,30.01,SSW,205,4.4,5.6,48,0.00,,OVC230,0.00,VWS V14.01,2013-06-15 20:43:00,
2013-06-15 16:48:00,86.4,62.0,30.01,WSW,245,10.3,13.2,44,0.00,,OVC230,0.00,VWS V14.01,2013-06-15 20:48:00,
2013-06-15 16:53:00,85.6,62.4,30.01,NW,304,5.2,6.6,46,0.00,,OVC230,0.00,VWS V14.01,2013-06-15 20:53:00,
2013-06-15 16:58:00,85.5,61.2,30.01,WSW,246,4.4,5.6,44,0.00,,OVC230,0.00,VWS V14.01,2013-06-15 20:58:00,
2013-06-15 17:04:00,85.5,61.2,30.01,SW,216,5.9,7.5,44,0.00,,OVC230,0.00,VWS V14.01,2013-06-15 21:04:00,
2013-06-15 17:09:00,85.3,62.1,30.01,SSW,206,5.9,8.5,46,0.00,,OVC230,0.00,VWS V14.01,2013-06-15 21:09:00,
2013-06-15 17:14:00,85.6,62.4,30.01,SW,227,6.6,8.5,46,0.00,,OVC230,0.00,VWS V14.01,2013-06-15 21:14:00,
2013-06-15 17:19:00,86.4,63.1,30.01,WSW,239,8.1,10.3,46,0.00,,OVC230,0.00,VWS V14.01,2013-06-15 21:19:00,
2013-06-15 17:24:00,86.9,62.5,30.01,South,173,4.4,5.6,44,0.00,,OVC230,0.00,VWS V14.01,2013-06-15 21:24:00,
2013-06-15 17:29:00,86.7,62.3,30.01,West,267,5.9,7.5,44,0.00,,OVC230,0.00,VWS V14.01,2013-06-15 21:29:00,
2013-06-15 17:34:00,86.2,60.8,30.01,SE,146,5.9,7.5,42,0.00,,OVC230,0.00,VWS V14.01,2013-06-15 21:34:00,
2013-06-15 17:39:00,86.5,59.9,30.01,NW,317,8.9,11.3,41,0.00,,BKN230,0.00,VWS V14.01,2013-06-15 21:39:00,
2013-06-15 17:45:00,87.3,60.6,30.01,WNW,298,6.6,8.5,41,0.00,,BKN230,0.00,VWS V14.01,2013-06-15 21:45:00,
2013-06-15 17:50:00,87.4,60.7,30.01,WNW,298,6.6,8.5,41,0.00,,BKN230,0.00,VWS V14.01,2013-06-15 21:50:00,
2013-06-15 17:55:00,87.1,60.4,30.01,SSW,192,8.1,11.3,41,0.00,,BKN230,0.00,VWS V14.01,2013-06-15 21:55:00,
2013-06-15 18:00:00,86.4,60.9,30.01,West,276,6.6,8.5,42,0.00,,BKN230,0.00,VWS V14.01,2013-06-15 22:00:00,
2013-06-15 18:05:00,86.0,60.6,30.01,West,281,5.2,8.5,42,0.00,,BKN230,0.00,VWS V14.01,2013-06-15 22:05:00,
2013-06-15 18:10:00,85.8,61.5,30.01,WNW,301,0.0,0.0,44,0.00,,BKN230,0.00,VWS V14.01,2013-06-15 22:10:00,
2013-06-15 18:15:00,85.6,63.5,30.01,West,279,0.0,0.0,48,0.00,,BKN230,0.00,VWS V14.01,2013-06-15 22:15:00,
2013-06-15 18:20:00,85.6,62.4,30.01,West,276,3.7,4.7,46,0.00,,BKN230,0.00,VWS V14.01,2013-06-15 22:20:00,
2013-06-15 18:26:00,86.0,61.7,29.98,WNW,301,8.9,13.2,44,0.00,,BKN230,0.00,VWS V14.01,2013-06-15 22:26:00,
2013-06-15 18:31:00,86.9,62.5,29.98,West,281,3.7,11.3,44,0.00,,BKN230,0.00,VWS V14.01,2013-06-15 22:31:00,
2013-06-15 18:36:00,87.1,61.6,29.98,WNW,282,3.7,5.6,42,0.00,,OVC230,0.00,VWS V14.01,2013-06-15 22:36:00,
2013-06-15 18:41:00,87.4,60.7,29.98,West,274,0.0,5.6,41,0.00,,OVC230,0.00,VWS V14.01,2013-06-15 22:41:00,
2013-06-15 18:46:00,87.3,61.7,29.98,West,274,0.0,0.0,42,0.00,,OVC230,0.00,VWS V14.01,2013-06-15 22:46:00,
2013-06-15 18:52:00,86.5,61.1,29.98,SW,221,5.2,10.3,42,0.00,,OVC230,0.00,VWS V14.01,2013-06-15 22:52:00,
2013-06-15 18:57:00,85.6,61.4,29.98,SSE,164,4.4,6.6,44,0.00,,OVC230,0.00,VWS V14.01,2013-06-15 22:57:00,
2013-06-15 19:02:00,84.7,61.6,29.98,South,182,5.9,7.5,46,0.00,,OVC230,0.00,VWS V14.01,2013-06-15 23:02:00,
2013-06-15 19:07:00,84.7,62.7,29.98,SW,222,0.0,0.0,48,0.00,,OVC230,0.00,VWS V14.01,2013-06-15 23:07:00,
2013-06-15 19:12:00,84.4,63.3,29.95,SW,221,0.0,0.0,49,0.00,,OVC230,0.00,VWS V14.01,2013-06-15 23:12:00,
2013-06-15 19:17:00,84.0,63.0,29.95,South,184,5.9,7.5,49,0.00,,OVC230,0.00,VWS V14.01,2013-06-15 23:17:00,
2013-06-15 19:23:00,83.5,62.5,29.95,SSW,212,3.7,5.6,49,0.00,,OVC230,0.00,VWS V14.01,2013-06-15 23:23:00,
2013-06-15 19:28:00,83.3,62.3,29.95,SSW,213,0.0,0.0,49,0.00,,OVC230,0.00,VWS V14.01,2013-06-15 23:28:00,
2013-06-15 19:33:00,82.8,62.8,29.95,SW,220,3.7,5.6,51,0.00,,OVC230,0.00,VWS V14.01,2013-06-15 23:33:00,
2013-06-15 19:38:00,82.4,62.5,29.95,SW,214,6.6,8.5,51,0.00,,SCT230,0.00,VWS V14.01,2013-06-15 23:38:00,
2013-06-15 19:43:00,82.0,63.1,29.95,SW,221,0.0,0.0,53,0.00,,SCT230,0.00,VWS V14.01,2013-06-15 23:43:00,
2013-06-15 19:49:00,81.9,62.9,29.95,SSE,167,5.2,7.5,53,0.00,,SCT230,0.00,VWS V14.01,2013-06-15 23:49:00,
2013-06-15 19:54:00,81.7,62.7,29.95,South,180,3.7,8.5,53,0.00,,SCT230,0.00,VWS V14.01,2013-06-15 23:54:00,
2013-06-15 19:59:00,81.7,62.7,29.95,South,180,5.2,8.5,53,0.00,,SCT230,0.00,VWS V14.01,2013-06-15 23:59:00,
2013-06-15 20:04:00,81.7,62.7,29.95,SW,218,6.6,10.3,53,0.00,,SCT230,0.00,VWS V14.01,2013-06-16 00:04:00,
2013-06-15 20:10:00,81.5,62.6,29.95,WSW,238,0.0,0.0,53,0.00,,SCT230,0.00,VWS V14.01,2013-06-16 00:10:00,
2013-06-15 20:15:00,81.5,62.6,29.95,South,185,6.6,8.5,53,0.00,,SCT230,0.00,VWS V14.01,2013-06-16 00:15:00,
2013-06-15 20:20:00,81.3,63.3,29.95,South,178,0.0,4.7,54,0.00,,SCT230,0.00,VWS V14.01,2013-06-16 00:20:00,
2013-06-15 20:25:00,81.0,63.0,29.95,South,187,6.6,8.5,54,0.00,,SCT230,0.00,VWS V14.01,2013-06-16 00:25:00,
2013-06-15 20:30:00,80.8,63.7,29.95,SSW,200,0.0,0.0,56,0.00,,SCT230,0.00,VWS V14.01,2013-06-16 00:30:00,
2013-06-15 20:35:00,80.4,63.3,29.95,South,184,4.4,7.5,56,0.00,,SCT230,0.00,VWS V14.01,2013-06-16 00:35:00,
2013-06-15 20:41:00,80.1,63.0,29.95,SSE,163,0.0,0.0,56,0.00,,SCT230,0.00,VWS V14.01,2013-06-16 00:41:00,
2013-06-15 20:46:00,79.7,63.5,29.95,South,186,0.0,0.0,58,0.00,,SCT230,0.00,VWS V14.01,2013-06-16 00:46:00,
2013-06-15 20:51:00,79.5,63.4,29.95,South,183,0.0,0.0,58,0.00,,SCT230,0.00,VWS V14.01,2013-06-16 00:51:00,
2013-06-15 20:56:00,79.3,64.0,29.98,South,183,0.0,0.0,60,0.00,,SCT230,0.00,VWS V14.01,2013-06-16 00:56:00,
2013-06-15 21:01:00,79.0,63.7,29.98,South,183,0.0,0.0,60,0.00,,SCT230,0.00,VWS V14.01,2013-06-16 01:01:00,
2013-06-15 21:06:00,78.6,64.2,29.98,South,187,0.0,0.0,61,0.00,,SCT230,0.00,VWS V14.01,2013-06-16 01:06:00,
2013-06-15 21:11:00,78.4,64.8,29.98,SSE,162,3.7,4.7,63,0.00,,SCT230,0.00,VWS V14.01,2013-06-16 01:11:00,
2013-06-15 21:16:00,78.3,64.6,29.98,South,184,0.0,0.0,63,0.00,,SCT230,0.00,VWS V14.01,2013-06-16 01:16:00,
2013-06-15 21:22:00,77.9,64.3,29.98,South,189,0.0,0.0,63,0.00,,SCT230,0.00,VWS V14.01,2013-06-16 01:22:00,
2013-06-15 21:27:00,77.5,64.7,29.98,SW,231,3.7,6.6,65,0.00,,SCT230,0.00,VWS V14.01,2013-06-16 01:27:00,
2013-06-15 21:32:00,77.4,64.5,29.98,SW,231,0.0,0.0,65,0.00,,SCT230,0.00,VWS V14.01,2013-06-16 01:32:00,
2013-06-15 21:37:00,77.0,64.9,29.98,South,184,0.0,0.0,66,0.00,,BKN230,0.00,VWS V14.01,2013-06-16 01:37:00,
2013-06-15 21:42:00,76.6,64.6,29.98,South,184,0.0,0.0,66,0.00,,BKN230,0.00,VWS V14.01,2013-06-16 01:42:00,
2013-06-15 21:48:00,76.3,64.9,29.98,South,186,0.0,0.0,68,0.00,,BKN230,0.00,VWS V14.01,2013-06-16 01:48:00,
2013-06-15 21:53:00,76.1,64.8,29.98,South,186,0.0,0.0,68,0.00,,BKN230,0.00,VWS V14.01,2013-06-16 01:53:00,
2013-06-15 21:58:00,75.7,65.2,29.98,South,171,0.0,0.0,70,0.00,,BKN230,0.00,VWS V14.01,2013-06-16 01:58:00,
2013-06-15 22:03:00,75.6,65.0,29.98,South,171,0.0,0.0,70,0.00,,BKN230,0.00,VWS V14.01,2013-06-16 02:03:00,
2013-06-15 22:08:00,75.4,64.8,29.98,South,191,0.0,8.5,70,0.00,,BKN230,0.00,VWS V14.01,2013-06-16 02:08:00,
2013-06-15 22:13:00,75.2,64.6,29.98,SSW,192,0.0,0.0,70,0.00,,BKN230,0.00,VWS V14.01,2013-06-16 02:13:00,
2013-06-15 22:18:00,75.0,65.2,29.98,SSW,192,0.0,0.0,71,0.00,,BKN230,0.00,VWS V14.01,2013-06-16 02:18:00,
2013-06-15 22:23:00,74.8,65.0,29.98,SSW,192,0.0,0.0,71,0.00,,BKN230,0.00,VWS V14.01,2013-06-16 02:23:00,
2013-06-15 22:28:00,74.7,65.5,29.98,SSW,192,0.0,0.0,73,0.00,,BKN230,0.00,VWS V14.01,2013-06-16 02:28:00,
2013-06-15 22:33:00,74.5,65.3,29.98,SSW,192,0.0,0.0,73,0.00,,BKN230,0.00,VWS V14.01,2013-06-16 02:33:00,
2013-06-15 22:38:00,74.3,65.8,29.98,SSW,192,0.0,0.0,75,0.00,,BKN230,0.00,VWS V14.01,2013-06-16 02:38:00,
2013-06-15 22:44:00,74.1,65.6,29.98,SSW,192,0.0,0.0,75,0.00,,OVC230,0.00,VWS V14.01,2013-06-16 02:44:00,
2013-06-15 22:49:00,73.9,65.4,29.98,SSW,192,0.0,0.0,75,0.00,,OVC230,0.00,VWS V14.01,2013-06-16 02:49:00,
2013-06-15 22:54:00,73.8,65.3,29.98,SSW,192,0.0,0.0,75,0.00,,OVC230,0.00,VWS V14.01,2013-06-16 02:54:00,
2013-06-15 22:59:00,73.6,65.7,29.98,SSW,192,0.0,0.0,76,0.00,,OVC230,0.00,VWS V14.01,2013-06-16 02:59:00,
2013-06-15 23:04:00,73.4,65.6,29.98,SSW,192,0.0,0.0,76,0.00,,OVC230,0.00,VWS V14.01,2013-06-16 03:04:00,
2013-06-15 23:09:00,73.2,66.0,29.98,SSW,192,0.0,0.0,78,0.00,,OVC230,0.00,VWS V14.01,2013-06-16 03:09:00,
2013-06-15 23:15:00,73.0,65.8,29.98,SSW,192,0.0,0.0,78,0.00,,OVC230,0.00,VWS V14.01,2013-06-16 03:15:00,
2013-06-15 23:20:00,72.9,65.7,29.98,SSW,192,0.0,0.0,78,0.00,,OVC230,0.00,VWS V14.01,2013-06-16 03:20:00,
2013-06-15 23:25:00,72.7,66.1,29.98,SSW,192,0.0,0.0,80,0.00,,OVC230,0.00,VWS V14.01,2013-06-16 03:25:00,
2013-06-15 23:30:00,72.7,66.1,29.98,SSW,192,0.0,0.0,80,0.00,,OVC230,0.00,VWS V14.01,2013-06-16 03:30:00,
2013-06-15 23:35:00,72.5,65.9,29.98,SSW,192,0.0,0.0,80,0.00,,OVC230,0.00,VWS V14.01,2013-06-16 03:35:00,
2013-06-15 23:40:00,72.3,66.4,29.98,SSW,192,0.0,0.0,82,0.00,,OVC230,0.00,VWS V14.01,2013-06-16 03:40:00,
2013-06-15 23:46:00,72.1,66.2,29.98,SSW,192,0.0,0.0,82,0.00,,OVC230,0.00,VWS V14.01,2013-06-16 03:46:00,
2013-06-15 23:51:00,72.1,66.8,29.98,SSW,192,0.0,0.0,83,0.00,,OVC230,0.00,VWS V14.01,2013-06-16 03:51:00,
2013-06-15 23:56:00,72.0,66.6,29.98,SSW,192,0.0,0.0,83,0.00,,OVC230,0.00,VWS V14.01,2013-06-16 03:56:00,